TimeEDT,TemperatureF,Dew PointF,Humidity,Sea Level PressureIn,VisibilityMPH,Wind Direction,Wind SpeedMPH,Gust SpeedMPH,PrecipitationIn,Events,Conditions,WindDirDegrees,DateUTC
12:54 AM,54.0,52.0,93,29.96,9.0,Calm,Calm,-,N/A,,Clear,0,2012-09-30 04:54:00
1:54 AM,53.1,52.0,96,29.95,9.0,Calm,Calm,-,N/A,,Clear,0,2012-09-30 05:54:00
2:54 AM,52.0,51.1,97,29.95,7.0,Calm,Calm,-,N/A,,Clear,0,2012-09-30 06:54:00
3:54 AM,50.0,48.9,96,29.94,5.0,SSW,3.5,-,N/A,,Clear,200,2012-09-30 07:54:00
4:54 AM,50.0,48.9,96,29.92,5.0,South,5.8,-,N/A,,Clear,180,2012-09-30 08:54:00
5:54 AM,50.0,48.9,96,29.92,4.0,SSW,3.5,-,N/A,,Clear,200,2012-09-30 09:54:00
6:54 AM,48.9,48.9,100,29.92,3.0,South,4.6,-,N/A,,Clear,190,2012-09-30 10:54:00
7:24 AM,51.8,50.0,94,29.93,2.0,SW,3.5,-,N/A,,Clear,220,2012-09-30 11:24:00
7:54 AM,50.0,50.0,100,29.92,5.0,SSW,3.5,-,N/A,,Clear,200,2012-09-30 11:54:00
8:54 AM,55.0,54.0,96,29.92,5.0,SSW,3.5,-,N/A,,Clear,200,2012-09-30 12:54:00
9:54 AM,60.8,55.4,82,29.93,9.0,SW,6.9,-,N/A,,Clear,230,2012-09-30 13:54:00
10:54 AM,66.0,57.0,73,29.91,10.0,SW,8.1,-,N/A,,Clear,220,2012-09-30 14:54:00
11:54 AM,69.1,55.0,61,29.90,10.0,WSW,8.1,-,N/A,,Clear,250,2012-09-30 15:54:00
12:54 PM,71.1,53.1,53,29.88,10.0,West,10.4,-,N/A,,Clear,260,2012-09-30 16:54:00
1:54 PM,71.1,54.0,55,29.87,10.0,WSW,9.2,-,N/A,,Clear,250,2012-09-30 17:54:00
2:54 PM,73.0,53.1,49,29.85,10.0,WSW,12.7,16.1,N/A,,Partly Cloudy,250,2012-09-30 18:54:00
3:54 PM,72.0,52.0,49,29.83,10.0,West,6.9,-,N/A,,Scattered Clouds,270,2012-09-30 19:54:00
4:54 PM,70.0,53.1,55,29.83,10.0,WSW,5.8,-,N/A,,Partly Cloudy,240,2012-09-30 20:54:00
5:54 PM,69.1,54.0,58,29.83,10.0,WSW,5.8,-,N/A,,Mostly Cloudy,240,2012-09-30 21:54:00
6:54 PM,66.9,54.0,63,29.84,10.0,WSW,3.5,-,N/A,,Partly Cloudy,240,2012-09-30 22:54:00
7:54 PM,66.0,54.0,65,29.84,10.0,Calm,Calm,-,N/A,,Clear,0,2012-09-30 23:54:00
8:54 PM,64.9,54.0,68,29.85,10.0,Calm,Calm,-,N/A,,Clear,0,2012-10-01 00:54:00
9:54 PM,63.0,53.1,70,29.86,10.0,ENE,6.9,-,N/A,,Clear,70,2012-10-01 01:54:00
10:54 PM,61.0,53.1,75,29.86,10.0,ENE,6.9,-,N/A,,Clear,60,2012-10-01 02:54:00
11:54 PM,60.1,51.1,72,29.86,10.0,NE,9.2,-,N/A,,Clear,40,2012-10-01 03:54:00